Location: Bambrugge
(50.9212°N, 3.9299°E)
Time: 21:11:24
(UTC+00:00)

Cosmos 2098 Rocket - Pass Details

Date: 23 May 2024
Orbit: 360 x 1020 km, 82.9° (Epoch: 14 June)

Event Time Altitude Azimuth Distance (km) Brightness Sun altitude
Rises 02:36:03 0° 346° (NNW) 3,046 7.1 -8.8°
Maximum altitude 02:43:08 57° 265° (W) 969 3.8 -8.0°
Drops below altitude 10° 02:48:57 10° 189° (S) 2,613 5.8 -7.4°
Sets 02:51:39 0° 186° (S) 3,626 6.5 -7.1°
Enters shadow 02:51:43 - 185° (S) 3,650 6.5 -7.1°
